Location: Kielce
(50.8833°N, 20.6167°E)
Time: 20:47:16
(UTC+02:00)

SR - Pass Details

Date: 21 April 2021
Orbit: 573 x 882 km, 66.7° (Epoch: 08 May)

Event Time Altitude Azimuth Distance (km) Brightness Sun altitude
Rises 16:21:29 0° 321° (NW) 3,483 ? 30.3°
Reaches altitude 10° 16:24:03 10° 319° (NW) 2,526 ? 29.9°
Maximum altitude 16:29:51 65° 239° (WSW) 920 ? 29.0°
Drops below altitude 10° 16:35:18 10° 158° (SSE) 2,366 ? 28.2°
Sets 16:37:38 0° 155° (SSE) 3,246 ? 27.9°
